EW6089 Weather Reports


time (UTC)temp
F
wind
direction
speed
knots
gust
knots
rain 1hr
in
rain 24hr
in
rain mn
in
humidity
%
barometer
mb
20260503044038 61 0.0 0.0 0.00 0.00 0.00 77 1014.4
20260503043017 61 0.0 0.0 0.00 0.00 0.00 78 1014.3
20260503042058 62 0.0 0.0 0.00 0.00 0.00 76 1014.2
20260503041017 62 0.0 0.0 0.00 0.00 0.00 77 1014.1
20260503040017 63 0.0 0.0 0.00 0.00 0.00 76 1014.0
20260503035017 64 0.0 0.0 0.00 0.00 0.00 74 1013.9
20260503034037 64 0.0 0.0 0.00 0.00 0.00 71 1013.7
20260503033017 65 0.0 0.0 0.00 0.00 0.00 71 1013.6
20260503032017 65 0.0 0.0 0.00 0.00 0.00 71 1013.5
20260503031016 66 0.0 0.0 0.00 0.00 0.00 69 1013.4
20260503030016 67 0.0 0.0 0.00 0.00 0.00 68 1013.3
20260503025017 68 0.0 0.0 0.00 0.00 0.00 67 1013.3
20260503024017 68 0.0 1.7 0.00 0.00 0.00 66 1013.2
20260503023016 68 0.0 0.9 0.00 0.00 0.00 68 1013.1
20260503022016 69 0.0 1.7 0.00 0.00 0.00 69 1013.0
20260503021037 69 0.0 1.7 0.00 0.00 0.00 66 1013.1
20260503020016 70 0.0 2.6 0.00 0.00 0.00 63 1013.1
20260503015037 71 0.0 1.7 0.00 0.00 0.00 63 1013.1
20260503014016 71 0.0 0.9 0.00 0.00 0.00 64 1013.0
20260503013037 72 158 0.9 3.5 0.00 0.00 0.00 62 1013.1
20260503012016 72 158 0.9 3.5 0.00 0.00 0.00 63 1013.1
20260503011036 72 0.0 4.3 0.00 0.00 0.00 62 1013.0
20260503010017 73 0.0 2.6 0.00 0.00 0.00 62 1013.1
20260503005016 73 158 0.9 2.6 0.00 0.00 0.00 62 1013.1
20260503004017 73 180 0.9 3.5 0.00 0.00 0.00 62 1013.1
20260503003017 73 158 0.9 4.3 0.00 0.00 0.00 61 1013.2
20260503002016 73 225 0.9 3.5 0.00 0.00 0.00 62 1013.2
20260503001041 73 180 0.9 3.5 0.00 0.00 0.00 61 1013.3
20260503000016 73 158 0.9 4.3 0.00 0.00 0.00 61 1013.3
20260502235017 73 158 0.9 4.3 0.00 0.00 0.00 61 1013.4
20260502234017 73 158 0.9 3.5 0.00 0.00 0.00 62 1013.5
20260502233017 73 158 0.9 3.5 0.00 0.00 0.00 62 1013.6
20260502232017 73 158 0.9 5.2 0.00 0.00 0.00 62 1013.8
20260502231017 73 225 0.9 3.5 0.00 0.00 0.00 64 1013.8
20260502230016 73 0.0 2.6 0.00 0.00 0.00 64 1014.0
20260502225016 72 158 0.9 4.3 0.00 0.00 0.00 64 1014.2
20260502224059 72 158 1.7 4.3 0.00 0.00 0.00 63 1014.3
20260502223037 73 158 0.9 3.5 0.00 0.00 0.00 65 1014.4
20260502222016 72 158 0.9 4.3 0.00 0.00 0.00 64 1014.5
20260502221016 72 0.0 2.6 0.00 0.00 0.00 64 1014.7
20260502220016 72 158 0.9 3.5 0.00 0.00 0.00 64 1014.7
20260502215057 72 158 0.9 3.5 0.00 0.00 0.00 64 1014.8
20260502214017 71 0.0 3.5 0.00 0.00 0.00 63 1014.9
20260502213016 70 135 0.9 5.2 0.00 0.00 0.00 65 1015.0
20260502212016 70 158 0.9 2.6 0.00 0.00 0.00 64 1015.2
20260502211016 70 225 0.9 3.5 0.00 0.00 0.00 63 1015.3
20260502210016 69 225 0.9 5.2 0.00 0.00 0.00 65 1015.3
20260502205016 69 158 0.9 4.3 0.00 0.00 0.00 63 1015.3
20260502204037 69 225 0.9 3.5 0.00 0.00 0.00 67 1015.3
20260502203036 68 158 0.9 2.6 0.00 0.00 0.00 67 1015.5
20260502202036 67 158 0.9 2.6 0.00 0.00 0.00 68 1015.7
20260502201017 67 225 0.9 3.5 0.00 0.00 0.00 67 1015.8
20260502200016 66 0.0 2.6 0.00 0.00 0.00 68 1016.0
20260502195036 66 158 0.9 3.5 0.00 0.00 0.00 70 1016.0
20260502194016 65 158 0.9 3.5 0.00 0.00 0.00 70 1016.1
20260502193036 65 225 0.9 2.6 0.00 0.00 0.00 71 1016.3
20260502192016 64 225 0.9 3.5 0.00 0.00 0.00 73 1016.3
20260502191036 63 158 0.9 3.5 0.00 0.00 0.00 73 1016.4
20260502190016 63 158 0.9 5.2 0.00 0.00 0.00 74 1016.6
20260502185016 62 0.0 2.6 0.00 0.00 0.00 76 1016.5
20260502184016 62 225 0.9 3.5 0.00 0.00 0.00 77 1016.5
20260502183016 61 0.0 1.7 0.00 0.00 0.00 78 1016.5
20260502182016 61 0.0 0.9 0.00 0.00 0.00 78 1016.6
20260502181016 60 0.0 2.6 0.00 0.00 0.00 78 1016.7
20260502164016 56 0.0 2.6 0.00 0.00 0.00 82 1017.3
20260502163015 56 0.0 1.7 0.00 0.00 0.00 83 1017.2
20260502162016 55 158 0.9 3.5 0.00 0.00 0.00 83 1017.3
20260502161016 55 0.0 3.5 0.00 0.00 0.00 84 1017.2
20260502152039 54 0.0 0.0 0.00 0.00 0.00 88 1017.0
20260502151017 53 0.0 0.0 0.00 0.00 0.00 89 1017.0
20260502123017 50 0.0 0.0 0.00 0.00 0.00 92 1017.0
20260502122015 50 0.0 0.9 0.00 0.00 0.00 92 1016.9
20260502121018 50 0.0 0.9 0.00 0.00 0.00 91 1016.9
20260502115017 50 0.0 0.0 0.00 0.00 0.00 91 1017.2
20260502114017 50 0.0 0.0 0.00 0.00 0.00 91 1017.5
20260502113017 50 0.0 0.0 0.00 0.00 0.00 91 1017.7
20260502112037 50 0.0 0.0 0.00 0.00 0.00 91 1017.6
20260502111017 50 0.0 0.9 0.00 0.00 0.00 90 1017.5
20260502110017 50 0.0 0.0 0.00 0.00 0.00 89 1017.1
20260502105018 50 0.0 0.0 0.00 0.00 0.00 89 1016.9
20260502104017 50 0.0 0.0 0.00 0.00 0.00 89 1016.8
20260502103017 50 0.0 0.0 0.00 0.00 0.00 89 1016.8
20260502102017 50 0.0 0.0 0.00 0.00 0.00 89 1016.7
20260502101017 50 0.0 0.0 0.00 0.00 0.00 89 1016.6
20260502091017 51 0.0 0.0 0.00 0.00 0.00 88 1016.9
20260502071017 55 0.0 0.0 0.00 0.00 0.00 84 1016.7
20260502070017 55 0.0 0.0 0.00 0.00 0.00 83 1016.6
20260502065017 55 0.0 0.0 0.00 0.00 0.00 82 1016.6
20260502064017 55 0.0 0.0 0.00 0.00 0.00 82 1017.0
20260502063016 55 0.0 0.0 0.00 0.00 0.00 81 1016.7
20260502062016 55 0.0 0.0 0.00 0.00 0.00 81 1016.6
20260502061017 55 0.0 0.0 0.00 0.00 0.00 80 1016.6
20260502060016 56 0.0 0.0 0.00 0.00 0.00 80 1016.5
20260502055016 56 0.0 0.0 0.00 0.00 0.00 79 1016.5
20260502054017 56 0.0 0.0 0.00 0.00 0.00 78 1016.3
20260502053017 57 0.0 0.0 0.00 0.00 0.00 78 1016.1
20260502052016 57 0.0 0.0 0.00 0.00 0.00 77 1016.2
20260502051017 57 0.0 0.0 0.00 0.00 0.00 75 1016.2
20260502050017 58 0.0 0.0 0.00 0.00 0.00 74 1016.0
20260502045016 58 0.0 0.0 0.00 0.00 0.00 74 1016.0